Time,TemperatureF,DewpointF,PressureIn,WindDirection,WindDirectionDegrees,WindSpeedMPH,WindSpeedGustMPH,Humidity,HourlyPrecipIn,Conditions,Clouds,dailyrainin,SolarRadiationWatts/m^2,SoftwareType,DateUTC
2013-03-15 00:03:00,43.1,24.8,30.09,WNW,303,4.0,6.0,48,0.00,,,0.00,0,WeatherCatV1.14B232,2013-03-15 07:03:00,
2013-03-15 00:08:00,42.6,25.8,30.09,NW,315,2.0,3.0,51,0.00,,,0.00,0,WeatherCatV1.14B232,2013-03-15 07:08:00,
2013-03-15 00:13:00,42.9,27.9,30.09,NW,321,3.0,4.0,55,0.00,,,0.00,0,WeatherCatV1.14B232,2013-03-15 07:13:00,
2013-03-15 00:18:00,43.5,24.1,30.08,NNW,345,0.0,5.0,46,0.00,,,0.00,0,WeatherCatV1.14B232,2013-03-15 07:18:00,
2013-03-15 00:23:00,43.9,22.3,30.08,NNW,339,4.0,5.0,42,0.00,,,0.00,0,WeatherCatV1.14B232,2013-03-15 07:23:00,
2013-03-15 00:28:00,44.6,18.7,30.08,NNW,340,3.0,7.0,35,0.00,,,0.00,0,WeatherCatV1.14B232,2013-03-15 07:28:00,
2013-03-15 00:34:00,45.4,15.8,30.06,NNW,340,9.0,11.0,30,0.00,,,0.00,0,WeatherCatV1.14B232,2013-03-15 07:34:00,
2013-03-15 00:39:00,46.1,14.0,30.06,NW,318,3.0,7.0,27,0.00,,,0.00,0,WeatherCatV1.14B232,2013-03-15 07:39:00,
2013-03-15 00:44:00,46.5,13.5,30.06,NW,319,5.0,17.0,26,0.00,,,0.00,0,WeatherCatV1.14B232,2013-03-15 07:44:00,
2013-03-15 00:49:00,46.4,12.5,30.04,WNW,288,2.0,6.0,25,0.00,,,0.00,0,WeatherCatV1.14B232,2013-03-15 07:49:00,
2013-03-15 00:54:00,46.4,13.4,30.04,WNW,293,12.0,13.0,26,0.00,,,0.00,0,WeatherCatV1.14B232,2013-03-15 07:54:00,
2013-03-15 00:59:00,46.4,14.3,30.04,WNW,293,10.0,14.0,27,0.00,,,0.00,0,WeatherCatV1.14B232,2013-03-15 07:59:00,
2013-03-15 01:04:00,46.2,15.7,30.06,WNW,303,9.0,11.0,29,0.00,,,0.00,0,WeatherCatV1.14B232,2013-03-15 08:04:00,
2013-03-15 01:09:00,45.5,16.6,30.06,WNW,300,4.0,10.0,31,0.00,,,0.00,0,WeatherCatV1.14B232,2013-03-15 08:09:00,
2013-03-15 01:14:00,44.8,19.5,30.06,NW,307,5.0,12.0,36,0.00,,,0.00,0,WeatherCatV1.14B232,2013-03-15 08:14:00,
2013-03-15 01:19:00,44.6,14.3,30.04,WNW,297,8.0,12.0,29,0.00,,,0.00,0,WeatherCatV1.14B232,2013-03-15 08:19:00,
2013-03-15 01:24:00,44.8,13.7,30.04,NNW,332,3.0,10.0,28,0.00,,,0.00,0,WeatherCatV1.14B232,2013-03-15 08:24:00,
2013-03-15 01:29:00,45.1,14.0,30.04,NNW,341,1.0,7.0,28,0.00,,,0.00,0,WeatherCatV1.14B232,2013-03-15 08:29:00,
2013-03-15 01:34:00,45.2,13.2,30.04,North,353,1.0,6.0,27,0.00,,,0.00,0,WeatherCatV1.14B232,2013-03-15 08:34:00,
2013-03-15 01:39:00,45.2,12.4,30.04,NNW,339,3.0,9.0,26,0.00,,,0.00,0,WeatherCatV1.14B232,2013-03-15 08:39:00,
2013-03-15 01:44:00,45.1,14.0,30.04,NW,310,2.0,5.0,28,0.00,,,0.00,0,WeatherCatV1.14B232,2013-03-15 08:44:00,
2013-03-15 01:49:00,44.9,13.8,30.03,WNW,299,5.0,6.0,28,0.00,,,0.00,0,WeatherCatV1.14B232,2013-03-15 08:49:00,
2013-03-15 01:54:00,44.9,13.8,30.03,WNW,302,6.0,13.0,28,0.00,,,0.00,0,WeatherCatV1.14B232,2013-03-15 08:54:00,
2013-03-15 01:59:00,44.8,12.9,30.03,WNW,283,4.0,11.0,27,0.00,,,0.00,0,WeatherCatV1.14B232,2013-03-15 08:59:00,
2013-03-15 02:04:00,44.5,13.4,30.03,WNW,299,6.0,13.0,28,0.00,,,0.00,0,WeatherCatV1.14B232,2013-03-15 09:04:00,
2013-03-15 02:09:00,44.3,13.3,30.03,NNW,343,4.0,12.0,28,0.00,,,0.00,0,WeatherCatV1.14B232,2013-03-15 09:09:00,
2013-03-15 02:14:00,44.3,13.3,30.03,NNW,345,2.0,6.0,28,0.00,,,0.00,0,WeatherCatV1.14B232,2013-03-15 09:14:00,
2013-03-15 02:19:00,44.2,12.4,30.02,NW,314,2.0,5.0,27,0.00,,,0.00,0,WeatherCatV1.14B232,2013-03-15 09:19:00,
2013-03-15 02:24:00,44.2,13.2,30.02,WNW,302,8.0,10.0,28,0.00,,,0.00,0,WeatherCatV1.14B232,2013-03-15 09:24:00,
2013-03-15 02:29:00,44.1,12.3,30.02,NNW,340,3.0,5.0,27,0.00,,,0.00,0,WeatherCatV1.14B232,2013-03-15 09:29:00,
2013-03-15 02:34:00,44.5,12.6,30.02,NW,323,5.0,9.0,27,0.00,,,0.00,0,WeatherCatV1.14B232,2013-03-15 09:34:00,
2013-03-15 02:39:00,44.8,12.9,30.02,NNW,335,3.0,12.0,27,0.00,,,0.00,0,WeatherCatV1.14B232,2013-03-15 09:39:00,
2013-03-15 02:44:00,44.5,13.4,30.02,NNW,330,3.0,12.0,28,0.00,,,0.00,0,WeatherCatV1.14B232,2013-03-15 09:44:00,
2013-03-15 02:49:00,45.1,12.3,30.00,NW,322,5.0,12.0,26,0.00,,,0.00,0,WeatherCatV1.14B232,2013-03-15 09:49:00,
2013-03-15 02:54:00,45.2,13.2,30.00,WNW,303,9.0,11.0,27,0.00,,,0.00,0,WeatherCatV1.14B232,2013-03-15 09:54:00,
2013-03-15 02:59:00,45.1,13.1,30.00,WNW,288,5.0,16.0,27,0.00,,,0.00,0,WeatherCatV1.14B232,2013-03-15 09:59:00,
2013-03-15 03:04:00,45.1,13.1,30.00,North,352,8.0,19.0,27,0.00,,,0.00,0,WeatherCatV1.14B232,2013-03-15 10:04:00,
2013-03-15 03:09:00,45.1,13.1,30.00,NNW,330,7.0,17.0,27,0.00,,,0.00,0,WeatherCatV1.14B232,2013-03-15 10:09:00,
2013-03-15 03:14:00,45.2,13.2,30.00,NNW,338,5.0,11.0,27,0.00,,,0.00,0,WeatherCatV1.14B232,2013-03-15 10:14:00,
2013-03-15 03:19:00,45.4,12.5,30.01,NNW,327,5.0,15.0,26,0.00,,,0.00,0,WeatherCatV1.14B232,2013-03-15 10:19:00,
2013-03-15 03:24:00,45.7,12.8,30.01,WNW,283,13.0,20.0,26,0.00,,,0.00,0,WeatherCatV1.14B232,2013-03-15 10:24:00,
2013-03-15 03:29:00,45.8,13.7,30.01,WNW,301,12.0,21.0,27,0.00,,,0.00,0,WeatherCatV1.14B232,2013-03-15 10:29:00,
2013-03-15 03:34:00,45.8,12.9,30.01,WNW,303,14.0,17.0,26,0.00,,,0.00,0,WeatherCatV1.14B232,2013-03-15 10:34:00,
2013-03-15 03:39:00,45.7,12.8,30.01,NW,310,10.0,16.0,26,0.00,,,0.00,0,WeatherCatV1.14B232,2013-03-15 10:39:00,
2013-03-15 03:44:00,45.7,12.8,30.01,NW,304,16.0,20.0,26,0.00,,,0.00,0,WeatherCatV1.14B232,2013-03-15 10:44:00,
2013-03-15 03:49:00,45.5,13.5,30.01,WNW,297,11.0,14.0,27,0.00,,,0.00,0,WeatherCatV1.14B232,2013-03-15 10:49:00,
2013-03-15 03:54:00,45.4,14.2,30.01,NW,311,14.0,16.0,28,0.00,,,0.00,0,WeatherCatV1.14B232,2013-03-15 10:54:00,
2013-03-15 03:59:00,45.1,14.0,30.01,NNW,332,9.0,14.0,28,0.00,,,0.00,0,WeatherCatV1.14B232,2013-03-15 10:59:00,
2013-03-15 04:04:00,44.8,12.9,30.00,WNW,293,9.0,15.0,27,0.00,,,0.00,0,WeatherCatV1.14B232,2013-03-15 11:04:00,
2013-03-15 04:09:00,44.8,12.9,30.00,NW,312,8.0,17.0,27,0.00,,,0.00,0,WeatherCatV1.14B232,2013-03-15 11:09:00,
2013-03-15 04:14:00,44.6,13.5,30.00,NNW,343,9.0,15.0,28,0.00,,,0.00,0,WeatherCatV1.14B232,2013-03-15 11:14:00,
2013-03-15 04:19:00,44.5,13.4,30.03,NW,313,15.0,16.0,28,0.00,,,0.00,0,WeatherCatV1.14B232,2013-03-15 11:19:00,
2013-03-15 04:24:00,44.3,13.3,30.03,NW,307,12.0,20.0,28,0.00,,,0.00,0,WeatherCatV1.14B232,2013-03-15 11:24:00,
2013-03-15 04:29:00,44.2,13.2,30.03,WNW,283,13.0,15.0,28,0.00,,,0.00,0,WeatherCatV1.14B232,2013-03-15 11:29:00,
2013-03-15 04:34:00,44.2,13.2,30.03,WNW,283,8.0,15.0,28,0.00,,,0.00,0,WeatherCatV1.14B232,2013-03-15 11:34:00,
2013-03-15 04:39:00,44.3,14.1,30.03,WNW,301,6.0,18.0,29,0.00,,,0.00,0,WeatherCatV1.14B232,2013-03-15 11:39:00,
2013-03-15 04:44:00,44.3,13.3,30.03,WNW,297,10.0,14.0,28,0.00,,,0.00,0,WeatherCatV1.14B232,2013-03-15 11:44:00,
2013-03-15 04:49:00,44.3,13.3,30.03,WNW,302,13.0,20.0,28,0.00,,,0.00,0,WeatherCatV1.14B232,2013-03-15 11:49:00,
2013-03-15 04:54:00,44.5,13.4,30.03,West,270,6.0,16.0,28,0.00,,,0.00,0,WeatherCatV1.14B232,2013-03-15 11:54:00,
2013-03-15 04:59:00,44.5,13.4,30.03,WNW,288,7.0,12.0,28,0.00,,,0.00,0,WeatherCatV1.14B232,2013-03-15 11:59:00,
2013-03-15 05:04:00,44.1,14.7,30.03,WNW,301,10.0,15.0,30,0.00,,,0.00,0,WeatherCatV1.14B232,2013-03-15 12:04:00,
2013-03-15 05:09:00,43.6,14.2,30.03,WNW,288,10.0,13.0,30,0.00,,,0.00,0,WeatherCatV1.14B232,2013-03-15 12:09:00,
2013-03-15 05:14:00,43.3,14.0,30.03,WNW,303,9.0,14.0,30,0.00,,,0.00,0,WeatherCatV1.14B232,2013-03-15 12:14:00,
2013-03-15 05:19:00,43.1,14.5,30.05,West,268,10.0,12.0,31,0.00,,,0.00,0,WeatherCatV1.14B232,2013-03-15 12:19:00,
2013-03-15 05:24:00,42.8,15.7,30.05,West,274,5.0,10.0,33,0.00,,,0.00,0,WeatherCatV1.14B232,2013-03-15 12:24:00,
2013-03-15 05:29:00,42.5,16.8,30.05,WSW,257,6.0,8.0,35,0.00,,,0.00,0,WeatherCatV1.14B232,2013-03-15 12:29:00,
2013-03-15 05:34:00,42.2,15.9,30.05,WNW,283,6.0,10.0,34,0.00,,,0.00,0,WeatherCatV1.14B232,2013-03-15 12:34:00,
2013-03-15 05:39:00,42.1,16.4,30.05,WSW,256,6.0,9.0,35,0.00,,,0.00,0,WeatherCatV1.14B232,2013-03-15 12:39:00,
2013-03-15 05:44:00,41.8,14.8,30.05,WNW,293,8.0,10.0,33,0.00,,,0.00,0,WeatherCatV1.14B232,2013-03-15 12:44:00,
2013-03-15 05:49:00,41.8,14.8,30.05,WNW,300,7.0,11.0,33,0.00,,,0.00,0,WeatherCatV1.14B232,2013-03-15 12:49:00,
2013-03-15 05:54:00,42.2,13.0,30.05,WNW,293,12.0,14.0,30,0.00,,,0.00,0,WeatherCatV1.14B232,2013-03-15 12:54:00,
2013-03-15 05:59:00,42.8,12.8,30.05,WNW,288,9.0,14.0,29,0.00,,,0.00,0,WeatherCatV1.14B232,2013-03-15 12:59:00,
2013-03-15 06:04:00,42.8,14.3,30.06,WNW,299,11.0,11.0,31,0.00,,,0.00,0,WeatherCatV1.14B232,2013-03-15 13:04:00,
2013-03-15 06:09:00,42.3,15.3,30.06,WNW,288,9.0,10.0,33,0.00,,,0.00,0,WeatherCatV1.14B232,2013-03-15 13:09:00,
2013-03-15 06:14:00,41.9,16.3,30.06,WNW,302,10.0,12.0,35,0.00,,,0.00,0,WeatherCatV1.14B232,2013-03-15 13:14:00,
2013-03-15 06:19:00,41.6,16.0,30.09,NW,309,6.0,10.0,35,0.00,,,0.00,0,WeatherCatV1.14B232,2013-03-15 13:19:00,
2013-03-15 06:24:00,41.5,16.6,30.09,NW,316,6.0,9.0,36,0.00,,,0.00,0,WeatherCatV1.14B232,2013-03-15 13:24:00,
2013-03-15 06:29:00,41.5,13.9,30.09,WNW,301,7.0,10.0,32,0.00,,,0.00,0,WeatherCatV1.14B232,2013-03-15 13:29:00,
2013-03-15 06:34:00,41.8,11.9,30.09,NW,307,7.0,15.0,29,0.00,,,0.00,0,WeatherCatV1.14B232,2013-03-15 13:34:00,
2013-03-15 06:39:00,42.3,11.5,30.09,NW,317,5.0,11.0,28,0.00,,,0.00,0,WeatherCatV1.14B232,2013-03-15 13:39:00,
2013-03-15 06:44:00,42.8,10.3,30.09,NW,318,4.0,10.0,26,0.00,,,0.00,0,WeatherCatV1.14B232,2013-03-15 13:44:00,
2013-03-15 06:49:00,43.2,9.8,30.08,NW,314,4.0,9.0,25,0.00,,,0.00,0,WeatherCatV1.14B232,2013-03-15 13:49:00,
2013-03-15 06:54:00,43.5,10.0,30.08,WNW,293,5.0,9.0,25,0.00,,,0.00,0,WeatherCatV1.14B232,2013-03-15 13:54:00,
2013-03-15 06:59:00,43.6,10.1,30.08,WNW,293,7.0,8.0,25,0.00,,,0.00,0,WeatherCatV1.14B232,2013-03-15 13:59:00,
2013-03-15 07:04:00,43.8,9.4,30.07,WNW,293,5.0,7.0,24,0.00,,,0.00,0,WeatherCatV1.14B232,2013-03-15 14:04:00,
2013-03-15 07:09:00,43.8,10.3,30.07,NW,312,7.0,7.0,25,0.00,,,0.00,7,WeatherCatV1.14B232,2013-03-15 14:09:00,
2013-03-15 07:14:00,43.9,10.4,30.07,WNW,297,5.0,5.0,25,0.00,,,0.00,0,WeatherCatV1.14B232,2013-03-15 14:14:00,
2013-03-15 07:19:00,43.9,10.4,30.09,WNW,283,3.0,6.0,25,0.00,,,0.00,7,WeatherCatV1.14B232,2013-03-15 14:19:00,
2013-03-15 07:24:00,43.8,10.3,30.09,WNW,283,3.0,5.0,25,0.00,,,0.00,11,WeatherCatV1.14B232,2013-03-15 14:24:00,
2013-03-15 07:29:00,43.6,10.1,30.09,West,278,3.0,5.0,25,0.00,,,0.00,14,WeatherCatV1.14B232,2013-03-15 14:29:00,
2013-03-15 07:34:00,43.6,11.0,30.10,WNW,283,2.0,5.0,26,0.00,,,0.00,18,WeatherCatV1.14B232,2013-03-15 14:34:00,
2013-03-15 07:39:00,43.5,10.9,30.10,WNW,283,0.0,4.0,26,0.00,,,0.00,28,WeatherCatV1.14B232,2013-03-15 14:39:00,
2013-03-15 07:44:00,43.3,9.9,30.10,WNW,297,3.0,4.0,25,0.00,,,0.00,40,WeatherCatV1.14B232,2013-03-15 14:44:00,
2013-03-15 07:49:00,43.3,9.9,30.09,WNW,293,3.0,5.0,25,0.00,,,0.00,35,WeatherCatV1.14B232,2013-03-15 14:49:00,
2013-03-15 07:54:00,43.3,9.9,30.09,WNW,293,4.0,5.0,25,0.00,,,0.00,37,WeatherCatV1.14B232,2013-03-15 14:54:00,
2013-03-15 07:59:00,43.5,10.0,30.09,WNW,293,2.0,3.0,25,0.00,,,0.00,63,WeatherCatV1.14B232,2013-03-15 14:59:00,
2013-03-15 08:04:00,43.5,10.0,30.09,WNW,293,0.0,4.0,25,0.00,,,0.00,84,WeatherCatV1.14B232,2013-03-15 15:04:00,
2013-03-15 08:09:00,43.6,10.1,30.09,WNW,303,0.0,3.0,25,0.00,,,0.00,91,WeatherCatV1.14B232,2013-03-15 15:09:00,
2013-03-15 08:14:00,43.8,9.4,30.09,NNW,327,3.0,4.0,24,0.00,,,0.00,98,WeatherCatV1.14B232,2013-03-15 15:14:00,
2013-03-15 08:19:00,44.2,7.8,30.09,North,350,0.0,6.0,22,0.00,,,0.00,111,WeatherCatV1.14B232,2013-03-15 15:19:00,
2013-03-15 08:24:00,44.8,6.2,30.09,North,351,4.0,4.0,20,0.00,,,0.00,118,WeatherCatV1.14B232,2013-03-15 15:24:00,
2013-03-15 08:30:00,45.1,6.5,30.09,NNW,347,0.0,3.0,20,0.00,,,0.00,132,WeatherCatV1.14B232,2013-03-15 15:30:00,
2013-03-15 08:35:00,45.2,9.6,30.09,West,271,4.0,5.0,23,0.00,,,0.00,153,WeatherCatV1.14B232,2013-03-15 15:35:00,
2013-03-15 08:40:00,44.9,13.0,30.09,WNW,283,6.0,9.0,27,0.00,,,0.00,148,WeatherCatV1.14B232,2013-03-15 15:40:00,
2013-03-15 08:45:00,43.8,18.0,30.10,WNW,293,5.0,6.0,35,0.00,,,0.00,146,WeatherCatV1.14B232,2013-03-15 15:45:00,
2013-03-15 08:50:00,42.3,21.4,30.10,WNW,293,4.0,5.0,43,0.00,,,0.00,169,WeatherCatV1.14B232,2013-03-15 15:50:00,
2013-03-15 08:55:00,41.5,20.1,30.10,WNW,293,3.0,5.0,42,0.00,,,0.00,181,WeatherCatV1.14B232,2013-03-15 15:55:00,
2013-03-15 09:00:00,40.9,18.5,30.13,WNW,293,5.0,5.0,40,0.00,,,0.00,169,WeatherCatV1.14B232,2013-03-15 16:00:00,
2013-03-15 09:05:00,40.8,15.3,30.13,NNW,335,0.0,6.0,35,0.00,,,0.00,190,WeatherCatV1.14B232,2013-03-15 16:05:00,
2013-03-15 09:10:00,41.1,16.8,30.13,NW,310,7.0,7.0,37,0.00,,,0.00,186,WeatherCatV1.14B232,2013-03-15 16:10:00,
2013-03-15 09:15:00,41.5,13.1,30.12,West,279,7.0,10.0,31,0.00,,,0.00,156,WeatherCatV1.14B232,2013-03-15 16:15:00,
2013-03-15 09:20:00,41.8,18.7,30.12,WNW,283,5.0,6.0,39,0.00,,,0.00,158,WeatherCatV1.14B232,2013-03-15 16:20:00,
2013-03-15 09:25:00,41.6,18.5,30.12,WNW,303,6.0,10.0,39,0.00,,,0.00,171,WeatherCatV1.14B232,2013-03-15 16:25:00,
2013-03-15 09:30:00,41.1,19.2,30.12,WNW,293,7.0,7.0,41,0.00,,,0.00,174,WeatherCatV1.14B232,2013-03-15 16:30:00,
2013-03-15 09:35:00,40.9,17.9,30.12,WNW,293,10.0,11.0,39,0.00,,,0.00,183,WeatherCatV1.14B232,2013-03-15 16:35:00,
2013-03-15 09:40:00,40.9,19.0,30.12,WNW,297,9.0,11.0,41,0.00,,,0.00,185,WeatherCatV1.14B232,2013-03-15 16:40:00,
2013-03-15 09:45:00,40.9,21.2,30.13,WNW,283,4.0,9.0,45,0.00,,,0.00,202,WeatherCatV1.14B232,2013-03-15 16:45:00,
2013-03-15 09:50:00,40.8,21.1,30.13,WNW,293,4.0,7.0,45,0.00,,,0.00,229,WeatherCatV1.14B232,2013-03-15 16:50:00,
2013-03-15 09:55:00,40.6,20.9,30.13,WNW,298,6.0,7.0,45,0.00,,,0.00,267,WeatherCatV1.14B232,2013-03-15 16:55:00,
2013-03-15 10:00:00,40.8,21.1,30.12,WNW,283,4.0,8.0,45,0.00,,,0.00,285,WeatherCatV1.14B232,2013-03-15 17:00:00,
2013-03-15 10:05:00,40.9,21.2,30.12,WNW,301,5.0,7.0,45,0.00,,,0.00,264,WeatherCatV1.14B232,2013-03-15 17:05:00,
2013-03-15 10:10:00,41.1,20.9,30.12,NW,307,6.0,8.0,44,0.00,,,0.00,304,WeatherCatV1.14B232,2013-03-15 17:10:00,
2013-03-15 10:15:00,41.5,18.4,30.14,WNW,299,4.0,9.0,39,0.00,,,0.00,278,WeatherCatV1.14B232,2013-03-15 17:15:00,
2013-03-15 10:20:00,42.1,18.3,30.14,WNW,297,3.0,8.0,38,0.00,,,0.00,287,WeatherCatV1.14B232,2013-03-15 17:20:00,
2013-03-15 10:25:00,42.5,19.9,30.14,WNW,288,4.0,5.0,40,0.00,,,0.00,295,WeatherCatV1.14B232,2013-03-15 17:25:00,
2013-03-15 10:30:00,42.9,20.3,30.13,WNW,288,5.0,6.0,40,0.00,,,0.00,330,WeatherCatV1.14B232,2013-03-15 17:30:00,
2013-03-15 10:35:00,43.2,19.3,30.13,WNW,283,5.0,8.0,38,0.00,,,0.00,329,WeatherCatV1.14B232,2013-03-15 17:35:00,
2013-03-15 10:40:00,43.6,17.8,30.13,West,272,8.0,11.0,35,0.00,,,0.00,424,WeatherCatV1.14B232,2013-03-15 17:40:00,
2013-03-15 10:45:00,44.3,14.8,30.13,WNW,288,5.0,11.0,30,0.00,,,0.00,346,WeatherCatV1.14B232,2013-03-15 17:45:00,
2013-03-15 10:50:00,44.9,13.8,30.13,NW,308,7.0,11.0,28,0.00,,,0.00,422,WeatherCatV1.14B232,2013-03-15 17:50:00,
2013-03-15 10:55:00,45.5,17.4,30.13,NW,314,3.0,7.0,32,0.00,,,0.00,387,WeatherCatV1.14B232,2013-03-15 17:55:00,
2013-03-15 11:00:00,45.8,14.6,30.11,WNW,293,7.0,10.0,28,0.00,,,0.00,334,WeatherCatV1.14B232,2013-03-15 18:00:00,
2013-03-15 11:05:00,46.1,14.8,30.11,NW,313,7.0,10.0,28,0.00,,,0.00,338,WeatherCatV1.14B232,2013-03-15 18:05:00,
2013-03-15 11:10:00,46.5,13.5,30.11,WNW,301,6.0,9.0,26,0.00,,,0.00,369,WeatherCatV1.14B232,2013-03-15 18:10:00,
2013-03-15 11:15:00,47.0,13.9,30.10,WNW,302,5.0,8.0,26,0.00,,,0.00,487,WeatherCatV1.14B232,2013-03-15 18:15:00,
2013-03-15 11:20:00,47.4,15.1,30.10,WNW,300,7.0,7.0,27,0.00,,,0.00,580,WeatherCatV1.14B232,2013-03-15 18:20:00,
2013-03-15 11:25:00,47.9,15.5,30.10,West,270,1.0,7.0,27,0.00,,,0.00,557,WeatherCatV1.14B232,2013-03-15 18:25:00,
2013-03-15 11:30:00,48.3,17.5,30.10,WNW,293,3.0,5.0,29,0.00,,,0.00,441,WeatherCatV1.14B232,2013-03-15 18:30:00,
2013-03-15 11:35:00,48.8,18.0,30.10,WNW,288,6.0,9.0,29,0.00,,,0.00,541,WeatherCatV1.14B232,2013-03-15 18:35:00,
2013-03-15 11:40:00,48.9,18.1,30.10,West,261,5.0,9.0,29,0.00,,,0.00,580,WeatherCatV1.14B232,2013-03-15 18:40:00,
2013-03-15 11:45:00,49.2,19.1,30.09,West,265,5.0,11.0,30,0.00,,,0.00,575,WeatherCatV1.14B232,2013-03-15 18:45:00,
2013-03-15 11:50:00,49.5,20.1,30.09,West,264,6.0,10.0,31,0.00,,,0.00,587,WeatherCatV1.14B232,2013-03-15 18:50:00,
2013-03-15 11:55:00,49.8,19.6,30.09,West,259,5.0,9.0,30,0.00,,,0.00,613,WeatherCatV1.14B232,2013-03-15 18:55:00,
2013-03-15 12:00:00,50.1,21.4,30.08,West,272,4.0,9.0,32,0.00,,,0.00,594,WeatherCatV1.14B232,2013-03-15 19:00:00,
2013-03-15 12:05:00,50.2,20.0,30.08,WSW,250,3.0,7.0,30,0.00,,,0.00,526,WeatherCatV1.14B232,2013-03-15 19:05:00,
2013-03-15 12:10:00,50.7,18.0,30.08,West,264,0.0,6.0,27,0.00,,,0.00,499,WeatherCatV1.14B232,2013-03-15 19:10:00,
2013-03-15 12:15:00,51.1,17.4,30.05,West,268,9.0,10.0,26,0.00,,,0.00,454,WeatherCatV1.14B232,2013-03-15 19:15:00,
2013-03-15 12:20:00,51.3,15.8,30.05,WSW,247,3.0,10.0,24,0.00,,,0.00,519,WeatherCatV1.14B232,2013-03-15 19:20:00,
2013-03-15 12:25:00,51.4,15.8,30.05,NW,307,9.0,13.0,24,0.00,,,0.00,476,WeatherCatV1.14B232,2013-03-15 19:25:00,
2013-03-15 12:30:00,51.6,15.0,30.05,West,266,5.0,11.0,23,0.00,,,0.00,571,WeatherCatV1.14B232,2013-03-15 19:30:00,
2013-03-15 12:35:00,51.7,15.1,30.05,WSW,256,4.0,16.0,23,0.00,,,0.00,540,WeatherCatV1.14B232,2013-03-15 19:35:00,
2013-03-15 12:40:00,51.9,14.3,30.05,WNW,293,12.0,13.0,22,0.00,,,0.00,455,WeatherCatV1.14B232,2013-03-15 19:40:00,
2013-03-15 12:45:00,51.9,15.3,30.03,WNW,297,13.0,13.0,23,0.00,,,0.00,670,WeatherCatV1.14B232,2013-03-15 19:45:00,
2013-03-15 12:50:00,52.0,18.2,30.03,WNW,288,6.0,14.0,26,0.00,,,0.00,751,WeatherCatV1.14B232,2013-03-15 19:50:00,
2013-03-15 12:55:00,52.2,18.4,30.03,NW,312,10.0,13.0,26,0.00,,,0.00,807,WeatherCatV1.14B232,2013-03-15 19:55:00,
2013-03-15 13:00:00,52.2,20.1,30.02,West,266,6.0,9.0,28,0.00,,,0.00,698,WeatherCatV1.14B232,2013-03-15 20:00:00,
2013-03-15 13:05:00,52.3,20.2,30.02,West,265,4.0,9.0,28,0.00,,,0.00,636,WeatherCatV1.14B232,2013-03-15 20:05:00,
2013-03-15 13:10:00,52.2,18.4,30.02,WNW,288,10.0,13.0,26,0.00,,,0.00,661,WeatherCatV1.14B232,2013-03-15 20:10:00,
2013-03-15 13:15:00,52.0,19.1,30.03,WNW,288,12.0,14.0,27,0.00,,,0.00,682,WeatherCatV1.14B232,2013-03-15 20:15:00,
2013-03-15 13:20:00,51.9,21.5,30.03,West,261,7.0,13.0,30,0.00,,,0.00,752,WeatherCatV1.14B232,2013-03-15 20:20:00,
2013-03-15 13:25:00,51.9,19.8,30.03,WNW,297,9.0,13.0,28,0.00,,,0.00,724,WeatherCatV1.14B232,2013-03-15 20:25:00,
2013-03-15 13:30:00,51.6,20.4,30.02,West,271,11.0,14.0,29,0.00,,,0.00,635,WeatherCatV1.14B232,2013-03-15 20:30:00,
2013-03-15 13:35:00,51.3,20.9,30.02,West,276,7.0,14.0,30,0.00,,,0.00,673,WeatherCatV1.14B232,2013-03-15 20:35:00,
2013-03-15 13:40:00,51.0,21.4,30.02,West,272,7.0,12.0,31,0.00,,,0.00,700,WeatherCatV1.14B232,2013-03-15 20:40:00,
2013-03-15 13:45:00,51.0,22.2,30.02,NW,307,13.0,15.0,32,0.00,,,0.00,703,WeatherCatV1.14B232,2013-03-15 20:45:00,
2013-03-15 13:50:00,50.7,21.2,30.02,West,263,9.0,13.0,31,0.00,,,0.00,693,WeatherCatV1.14B232,2013-03-15 20:50:00,
2013-03-15 13:55:00,50.5,21.8,30.02,West,264,13.0,13.0,32,0.00,,,0.00,596,WeatherCatV1.14B232,2013-03-15 20:55:00,
2013-03-15 14:00:00,50.4,19.4,30.03,West,266,6.0,13.0,29,0.00,,,0.00,547,WeatherCatV1.14B232,2013-03-15 21:00:00,
2013-03-15 14:05:00,50.2,20.7,30.03,WSW,239,4.0,14.0,31,0.00,,,0.00,541,WeatherCatV1.14B232,2013-03-15 21:05:00,
2013-03-15 14:10:00,50.2,22.2,30.03,NW,306,6.0,10.0,33,0.00,,,0.00,527,WeatherCatV1.14B232,2013-03-15 21:10:00,
2013-03-15 14:15:00,50.2,20.7,30.02,West,272,10.0,13.0,31,0.00,,,0.00,580,WeatherCatV1.14B232,2013-03-15 21:15:00,
2013-03-15 14:20:00,50.2,21.5,30.02,WSW,252,9.0,12.0,32,0.00,,,0.00,613,WeatherCatV1.14B232,2013-03-15 21:20:00,
2013-03-15 14:25:00,50.4,21.7,30.02,West,264,9.0,14.0,32,0.00,,,0.00,638,WeatherCatV1.14B232,2013-03-15 21:25:00,
2013-03-15 14:30:00,50.5,22.5,30.00,WNW,297,6.0,13.0,33,0.00,,,0.00,647,WeatherCatV1.14B232,2013-03-15 21:30:00,
2013-03-15 14:35:00,50.7,21.2,30.00,West,261,6.0,15.0,31,0.00,,,0.00,740,WeatherCatV1.14B232,2013-03-15 21:35:00,
2013-03-15 14:40:00,51.0,21.4,30.00,West,260,16.0,16.0,31,0.00,,,0.00,788,WeatherCatV1.14B232,2013-03-15 21:40:00,
2013-03-15 14:45:00,51.3,20.9,30.00,WSW,247,9.0,18.0,30,0.00,,,0.00,703,WeatherCatV1.14B232,2013-03-15 21:45:00,
2013-03-15 14:50:00,51.4,20.2,30.00,West,269,10.0,15.0,29,0.00,,,0.00,615,WeatherCatV1.14B232,2013-03-15 21:50:00,
2013-03-15 14:55:00,51.7,20.5,30.00,West,271,4.0,10.0,29,0.00,,,0.00,752,WeatherCatV1.14B232,2013-03-15 21:55:00,
2013-03-15 15:00:00,52.0,19.9,29.99,West,275,9.0,16.0,28,0.00,,,0.00,403,WeatherCatV1.14B232,2013-03-15 22:00:00,
2013-03-15 15:05:00,52.0,19.9,29.99,West,273,12.0,17.0,28,0.00,,,0.00,782,WeatherCatV1.14B232,2013-03-15 22:05:00,
2013-03-15 15:10:00,52.2,20.1,29.99,NW,308,14.0,18.0,28,0.00,,,0.00,747,WeatherCatV1.14B232,2013-03-15 22:10:00,
2013-03-15 15:15:00,52.3,20.2,29.98,WNW,288,11.0,15.0,28,0.00,,,0.00,629,WeatherCatV1.14B232,2013-03-15 22:15:00,
2013-03-15 15:20:00,52.5,20.4,29.98,WNW,293,12.0,18.0,28,0.00,,,0.00,524,WeatherCatV1.14B232,2013-03-15 22:20:00,
2013-03-15 15:25:00,52.6,19.6,29.98,West,272,12.0,18.0,27,0.00,,,0.00,722,WeatherCatV1.14B232,2013-03-15 22:25:00,
2013-03-15 15:30:00,52.9,19.8,29.97,WNW,283,13.0,18.0,27,0.00,,,0.00,485,WeatherCatV1.14B232,2013-03-15 22:30:00,
2013-03-15 15:35:00,53.1,19.1,29.97,WSW,257,7.0,18.0,26,0.00,,,0.00,693,WeatherCatV1.14B232,2013-03-15 22:35:00,
2013-03-15 15:40:00,53.1,19.1,29.97,West,261,5.0,19.0,26,0.00,,,0.00,584,WeatherCatV1.14B232,2013-03-15 22:40:00,
2013-03-15 15:45:00,53.2,19.2,29.97,West,273,5.0,15.0,26,0.00,,,0.00,520,WeatherCatV1.14B232,2013-03-15 22:45:00,
2013-03-15 15:50:00,53.3,19.3,29.97,WNW,303,16.0,20.0,26,0.00,,,0.00,482,WeatherCatV1.14B232,2013-03-15 22:50:00,
2013-03-15 15:55:00,53.3,20.2,29.97,NW,312,14.0,21.0,27,0.00,,,0.00,527,WeatherCatV1.14B232,2013-03-15 22:55:00,
2013-03-15 16:00:00,53.2,17.4,29.97,NW,319,10.0,21.0,24,0.00,,,0.00,450,WeatherCatV1.14B232,2013-03-15 23:00:00,
2013-03-15 16:05:00,52.8,18.0,29.97,WNW,288,16.0,21.0,25,0.00,,,0.00,446,WeatherCatV1.14B232,2013-03-15 23:05:00,
2013-03-15 16:10:00,52.5,16.8,29.97,NW,307,16.0,22.0,24,0.00,,,0.00,450,WeatherCatV1.14B232,2013-03-15 23:10:00,
2013-03-15 16:15:00,52.2,16.5,29.98,WNW,293,18.0,20.0,24,0.00,,,0.00,366,WeatherCatV1.14B232,2013-03-15 23:15:00,
2013-03-15 16:20:00,52.0,18.2,29.98,West,272,14.0,17.0,26,0.00,,,0.00,394,WeatherCatV1.14B232,2013-03-15 23:20:00,
2013-03-15 16:25:00,51.9,18.1,29.98,WNW,283,13.0,22.0,26,0.00,,,0.00,336,WeatherCatV1.14B232,2013-03-15 23:25:00,
2013-03-15 16:30:00,51.7,19.7,29.98,NNW,332,14.0,18.0,28,0.00,,,0.00,364,WeatherCatV1.14B232,2013-03-15 23:30:00,
2013-03-15 16:35:00,51.4,18.6,29.98,West,279,8.0,21.0,27,0.00,,,0.00,345,WeatherCatV1.14B232,2013-03-15 23:35:00,
2013-03-15 16:40:00,51.3,19.3,29.98,West,279,11.0,15.0,28,0.00,,,0.00,408,WeatherCatV1.14B232,2013-03-15 23:40:00,
2013-03-15 16:45:00,51.1,19.1,30.00,WSW,243,16.0,19.0,28,0.00,,,0.00,315,WeatherCatV1.14B232,2013-03-15 23:45:00,
2013-03-15 16:50:00,51.1,20.8,30.00,WSW,258,11.0,13.0,30,0.00,,,0.00,417,WeatherCatV1.14B232,2013-03-15 23:50:00,
2013-03-15 16:55:00,51.0,19.9,30.00,West,278,9.0,18.0,29,0.00,,,0.00,362,WeatherCatV1.14B232,2013-03-15 23:55:00,
2013-03-15 17:00:00,51.0,19.1,30.00,WNW,288,13.0,21.0,28,0.00,,,0.00,388,WeatherCatV1.14B232,2013-03-16 00:00:00,
2013-03-15 17:05:00,51.0,20.7,30.00,WSW,255,12.0,12.0,30,0.00,,,0.00,265,WeatherCatV1.14B232,2013-03-16 00:05:00,
2013-03-15 17:10:00,50.8,21.3,30.00,WNW,293,6.0,10.0,31,0.00,,,0.00,216,WeatherCatV1.14B232,2013-03-16 00:10:00,
2013-03-15 17:15:00,50.5,17.8,30.00,West,274,17.0,21.0,27,0.00,,,0.00,214,WeatherCatV1.14B232,2013-03-16 00:15:00,
2013-03-15 17:20:00,50.2,18.4,30.00,WSW,258,6.0,16.0,28,0.00,,,0.00,230,WeatherCatV1.14B232,2013-03-16 00:20:00,
2013-03-15 17:25:00,49.9,20.5,30.00,West,261,15.0,18.0,31,0.00,,,0.00,216,WeatherCatV1.14B232,2013-03-16 00:25:00,
2013-03-15 17:30:00,49.5,20.9,30.02,WNW,299,11.0,12.0,32,0.00,,,0.00,216,WeatherCatV1.14B232,2013-03-16 00:30:00,
2013-03-15 17:35:00,49.4,22.2,30.02,WNW,288,18.0,18.0,34,0.00,,,0.00,257,WeatherCatV1.14B232,2013-03-16 00:35:00,
2013-03-15 17:40:00,49.4,22.9,30.02,WNW,293,14.0,15.0,35,0.00,,,0.00,255,WeatherCatV1.14B232,2013-03-16 00:40:00,
2013-03-15 17:45:00,49.5,23.0,30.02,NW,311,11.0,13.0,35,0.00,,,0.00,178,WeatherCatV1.14B232,2013-03-16 00:45:00,
2013-03-15 17:50:00,49.4,22.9,30.02,WNW,303,12.0,17.0,35,0.00,,,0.00,171,WeatherCatV1.14B232,2013-03-16 00:50:00,
2013-03-15 17:55:00,49.2,23.4,30.02,NW,322,10.0,15.0,36,0.00,,,0.00,160,WeatherCatV1.14B232,2013-03-16 00:55:00,
2013-03-15 18:00:00,49.1,23.3,30.01,NW,314,12.0,12.0,36,0.00,,,0.00,169,WeatherCatV1.14B232,2013-03-16 01:00:00,
2013-03-15 18:05:00,48.9,23.8,30.01,WNW,297,15.0,15.0,37,0.00,,,0.00,171,WeatherCatV1.14B232,2013-03-16 01:05:00,
2013-03-15 18:10:00,48.8,23.0,30.01,NW,305,11.0,15.0,36,0.00,,,0.00,202,WeatherCatV1.14B232,2013-03-16 01:10:00,
2013-03-15 18:15:00,48.6,22.9,30.02,NW,306,13.0,15.0,36,0.00,,,0.00,163,WeatherCatV1.14B232,2013-03-16 01:15:00,
2013-03-15 18:20:00,48.5,22.1,30.02,WNW,303,9.0,19.0,35,0.00,,,0.00,151,WeatherCatV1.14B232,2013-03-16 01:20:00,
2013-03-15 18:25:00,48.5,22.8,30.02,WNW,293,8.0,17.0,36,0.00,,,0.00,91,WeatherCatV1.14B232,2013-03-16 01:25:00,
2013-03-15 18:30:00,48.2,22.5,30.01,WNW,297,15.0,18.0,36,0.00,,,0.00,67,WeatherCatV1.14B232,2013-03-16 01:30:00,
2013-03-15 18:35:00,47.9,22.9,30.01,NW,307,12.0,13.0,37,0.00,,,0.00,54,WeatherCatV1.14B232,2013-03-16 01:35:00,
2013-03-15 18:40:00,47.6,22.6,30.01,NW,312,12.0,18.0,37,0.00,,,0.00,37,WeatherCatV1.14B232,2013-03-16 01:40:00,
2013-03-15 18:45:00,47.4,23.1,30.03,WNW,293,13.0,13.0,38,0.00,,,0.00,25,WeatherCatV1.14B232,2013-03-16 01:45:00,
2013-03-15 18:50:00,47.1,22.8,30.03,WNW,288,8.0,14.0,38,0.00,,,0.00,19,WeatherCatV1.14B232,2013-03-16 01:50:00,
2013-03-15 18:55:00,46.8,23.2,30.03,NW,322,12.0,14.0,39,0.00,,,0.00,16,WeatherCatV1.14B232,2013-03-16 01:55:00,
2013-03-15 19:00:00,46.5,22.9,30.03,WNW,293,4.0,15.0,39,0.00,,,0.00,11,WeatherCatV1.14B232,2013-03-16 02:00:00,
2013-03-15 19:05:00,46.4,22.2,30.03,WSW,255,9.0,13.0,38,0.00,,,0.00,5,WeatherCatV1.14B232,2013-03-16 02:05:00,
2013-03-15 19:10:00,46.2,22.6,30.03,NW,316,12.0,14.0,39,0.00,,,0.00,0,WeatherCatV1.14B232,2013-03-16 02:10:00,
2013-03-15 19:15:00,46.1,22.5,30.05,WNW,303,8.0,11.0,39,0.00,,,0.00,0,WeatherCatV1.14B232,2013-03-16 02:15:00,
2013-03-15 19:20:00,46.0,22.4,30.05,NW,308,6.0,12.0,39,0.00,,,0.00,0,WeatherCatV1.14B232,2013-03-16 02:20:00,
2013-03-15 19:25:00,45.8,22.9,30.05,WNW,293,8.0,13.0,40,0.00,,,0.00,0,WeatherCatV1.14B232,2013-03-16 02:25:00,
2013-03-15 19:30:00,45.8,22.9,30.05,WNW,297,6.0,6.0,40,0.00,,,0.00,0,WeatherCatV1.14B232,2013-03-16 02:30:00,
2013-03-15 19:35:00,45.5,22.6,30.05,NW,313,6.0,7.0,40,0.00,,,0.00,0,WeatherCatV1.14B232,2013-03-16 02:35:00,
2013-03-15 19:40:00,45.2,22.3,30.05,WNW,297,3.0,7.0,40,0.00,,,0.00,0,WeatherCatV1.14B232,2013-03-16 02:40:00,
2013-03-15 19:45:00,45.1,22.2,30.06,WNW,301,5.0,7.0,40,0.00,,,0.00,0,WeatherCatV1.14B232,2013-03-16 02:45:00,
2013-03-15 19:50:00,44.9,22.6,30.06,WNW,293,5.0,10.0,41,0.00,,,0.00,0,WeatherCatV1.14B232,2013-03-16 02:50:00,
2013-03-15 19:55:00,44.6,22.9,30.06,NW,307,6.0,7.0,42,0.00,,,0.00,0,WeatherCatV1.14B232,2013-03-16 02:55:00,
2013-03-15 20:00:00,44.3,22.7,30.06,WNW,297,6.0,7.0,42,0.00,,,0.00,0,WeatherCatV1.14B232,2013-03-16 03:00:00,
2013-03-15 20:05:00,44.2,23.1,30.06,WNW,288,6.0,9.0,43,0.00,,,0.00,0,WeatherCatV1.14B232,2013-03-16 03:05:00,
2013-03-15 20:10:00,44.1,22.5,30.06,WNW,298,4.0,7.0,42,0.00,,,0.00,0,WeatherCatV1.14B232,2013-03-16 03:10:00,
2013-03-15 20:15:00,43.9,22.9,30.09,WNW,293,5.0,6.0,43,0.00,,,0.00,0,WeatherCatV1.14B232,2013-03-16 03:15:00,
2013-03-15 20:20:00,43.8,22.8,30.09,WNW,288,6.0,6.0,43,0.00,,,0.00,0,WeatherCatV1.14B232,2013-03-16 03:20:00,
2013-03-15 20:25:00,43.6,22.6,30.09,WNW,283,4.0,7.0,43,0.00,,,0.00,0,WeatherCatV1.14B232,2013-03-16 03:25:00,
2013-03-15 20:30:00,43.5,21.9,30.09,WNW,293,6.0,10.0,42,0.00,,,0.00,0,WeatherCatV1.14B232,2013-03-16 03:30:00,
2013-03-15 20:35:00,43.6,21.5,30.09,NW,309,7.0,10.0,41,0.00,,,0.00,0,WeatherCatV1.14B232,2013-03-16 03:35:00,
2013-03-15 20:40:00,43.9,20.6,30.09,WNW,297,6.0,10.0,39,0.00,,,0.00,0,WeatherCatV1.14B232,2013-03-16 03:40:00,
2013-03-15 20:45:00,44.1,21.3,30.08,WNW,283,6.0,10.0,40,0.00,,,0.00,0,WeatherCatV1.14B232,2013-03-16 03:45:00,
2013-03-15 20:50:00,44.1,21.9,30.08,WNW,283,4.0,7.0,41,0.00,,,0.00,0,WeatherCatV1.14B232,2013-03-16 03:50:00,
2013-03-15 20:55:00,43.9,21.2,30.08,West,268,5.0,7.0,40,0.00,,,0.00,0,WeatherCatV1.14B232,2013-03-16 03:55:00,
2013-03-15 21:00:00,43.8,21.6,30.08,WNW,283,5.0,7.0,41,0.00,,,0.00,0,WeatherCatV1.14B232,2013-03-16 04:00:00,
2013-03-15 21:02:00,43.6,21.5,30.08,WNW,283,3.0,5.0,41,0.00,,,0.00,0,WeatherCatV1.14B232,2013-03-16 04:02:00,
2013-03-15 21:03:00,43.6,21.5,30.08,WNW,283,4.0,4.0,41,0.00,,,0.00,0,WeatherCatV1.14B232,2013-03-16 04:03:00,
2013-03-15 21:08:00,43.5,21.4,30.08,WNW,283,3.0,5.0,41,0.00,,,0.00,0,WeatherCatV1.14B232,2013-03-16 04:08:00,
2013-03-15 21:10:00,43.3,21.2,30.08,WNW,288,0.0,3.0,41,0.00,,,0.00,0,WeatherCatV1.14B232,2013-03-16 04:10:00,
2013-03-15 21:15:00,43.3,21.2,30.08,WNW,299,4.0,5.0,41,0.00,,,0.00,0,WeatherCatV1.14B232,2013-03-16 04:15:00,
2013-03-15 21:20:00,43.3,20.6,30.08,WNW,298,2.0,3.0,40,0.00,,,0.00,0,WeatherCatV1.14B232,2013-03-16 04:20:00,
2013-03-15 21:25:00,43.5,20.8,30.08,WNW,297,3.0,4.0,40,0.00,,,0.00,0,WeatherCatV1.14B232,2013-03-16 04:25:00,
2013-03-15 21:30:00,43.6,20.9,30.08,WNW,297,2.0,4.0,40,0.00,,,0.00,0,WeatherCatV1.14B232,2013-03-16 04:30:00,
2013-03-15 21:35:00,43.8,19.9,30.08,WNW,297,2.0,4.0,38,0.00,,,0.00,0,WeatherCatV1.14B232,2013-03-16 04:35:00,
2013-03-15 21:40:00,43.9,19.3,30.08,WNW,293,5.0,7.0,37,0.00,,,0.00,0,WeatherCatV1.14B232,2013-03-16 04:40:00,
2013-03-15 21:45:00,44.1,18.9,30.08,NW,307,2.0,4.0,36,0.00,,,0.00,0,WeatherCatV1.14B232,2013-03-16 04:45:00,
2013-03-15 21:50:00,44.1,18.2,30.08,NW,307,2.0,2.0,35,0.00,,,0.00,0,WeatherCatV1.14B232,2013-03-16 04:50:00,
2013-03-15 21:55:00,44.2,18.3,30.08,NW,307,3.0,4.0,35,0.00,,,0.00,0,WeatherCatV1.14B232,2013-03-16 04:55:00,
2013-03-15 22:00:00,44.2,18.3,30.09,NW,306,3.0,4.0,35,0.00,,,0.00,0,WeatherCatV1.14B232,2013-03-16 05:00:00,
2013-03-15 22:05:00,44.3,18.4,30.09,WNW,301,4.0,4.0,35,0.00,,,0.00,0,WeatherCatV1.14B232,2013-03-16 05:05:00,
2013-03-15 22:10:00,44.2,19.0,30.09,WNW,288,3.0,6.0,36,0.00,,,0.00,0,WeatherCatV1.14B232,2013-03-16 05:10:00,
2013-03-15 22:15:00,44.1,20.1,30.05,WNW,283,2.0,4.0,38,0.00,,,0.00,0,WeatherCatV1.14B232,2013-03-16 05:15:00,
2013-03-15 22:20:00,43.8,19.9,30.05,West,278,5.0,6.0,38,0.00,,,0.00,0,WeatherCatV1.14B232,2013-03-16 05:20:00,
2013-03-15 22:25:00,43.5,20.2,30.05,WNW,293,2.0,7.0,39,0.00,,,0.00,0,WeatherCatV1.14B232,2013-03-16 05:25:00,
2013-03-15 22:30:00,43.2,19.9,30.07,WNW,288,2.0,5.0,39,0.00,,,0.00,0,WeatherCatV1.14B232,2013-03-16 05:30:00,
2013-03-15 22:35:00,42.9,20.3,30.07,WNW,297,4.0,5.0,40,0.00,,,0.00,0,WeatherCatV1.14B232,2013-03-16 05:35:00,
2013-03-15 22:40:00,42.8,20.2,30.07,WNW,297,4.0,5.0,40,0.00,,,0.00,0,WeatherCatV1.14B232,2013-03-16 05:40:00,
2013-03-15 22:45:00,42.6,19.4,30.06,NW,306,4.0,6.0,39,0.00,,,0.00,0,WeatherCatV1.14B232,2013-03-16 05:45:00,
2013-03-15 22:50:00,42.6,19.4,30.06,NW,304,3.0,5.0,39,0.00,,,0.00,0,WeatherCatV1.14B232,2013-03-16 05:50:00,
2013-03-15 22:55:00,42.6,19.4,30.06,WNW,301,3.0,4.0,39,0.00,,,0.00,0,WeatherCatV1.14B232,2013-03-16 05:55:00,
2013-03-15 23:00:00,42.6,19.4,30.06,WNW,301,0.0,0.0,39,0.00,,,0.00,0,WeatherCatV1.14B232,2013-03-16 06:00:00,
2013-03-15 23:05:00,42.6,20.6,30.06,SW,229,2.0,4.0,41,0.00,,,0.00,0,WeatherCatV1.14B232,2013-03-16 06:05:00,
2013-03-15 23:10:00,42.3,19.7,30.06,SW,229,0.0,1.0,40,0.00,,,0.00,0,WeatherCatV1.14B232,2013-03-16 06:10:00,
2013-03-15 23:15:00,42.2,18.4,30.01,SW,229,2.0,2.0,38,0.00,,,0.00,0,WeatherCatV1.14B232,2013-03-16 06:15:00,
2013-03-15 23:20:00,41.9,15.6,30.01,SW,229,0.0,3.0,34,0.00,,,0.00,0,WeatherCatV1.14B232,2013-03-16 06:20:00,
2013-03-15 23:25:00,41.9,17.5,30.01,West,273,0.0,3.0,37,0.00,,,0.00,0,WeatherCatV1.14B232,2013-03-16 06:25:00,
2013-03-15 23:30:00,41.9,16.3,30.01,West,273,0.0,0.0,35,0.00,,,0.00,0,WeatherCatV1.14B232,2013-03-16 06:30:00,
2013-03-15 23:35:00,41.8,16.8,30.01,West,273,0.0,0.0,36,0.00,,,0.00,0,WeatherCatV1.14B232,2013-03-16 06:35:00,
2013-03-15 23:40:00,41.8,10.3,30.01,WSW,257,0.0,3.0,27,0.00,,,0.00,0,WeatherCatV1.14B232,2013-03-16 06:40:00,
2013-03-15 23:45:00,41.8,6.8,30.00,WSW,238,0.0,0.0,23,0.00,,,0.00,0,WeatherCatV1.14B232,2013-03-16 06:45:00,
2013-03-15 23:50:00,42.1,8.8,30.00,WSW,239,0.0,0.0,25,0.00,,,0.00,0,WeatherCatV1.14B232,2013-03-16 06:50:00,
2013-03-15 23:55:00,42.2,5.1,30.00,WSW,239,0.0,0.0,21,0.00,,,0.00,0,WeatherCatV1.14B232,2013-03-16 06:55:00,